sat.trackr.live / text

‹ back to catalog

IRIDIUM 126

NORAD 42809 · 2017-039G

PAYLOAD ACTIVE UNKNOWN

§ Identity

Operator
Country
US
Launch date
2017-06-25
Launch site
AFWTR
Launch vehicle
Mass (kg)
RCS (m²)

Purposes: comms

External: N2YO · Heavens-Above · Gunter

§ Orbital elements

Epoch: 2026-09-19T21:27:46.975680Z

Period
100.40 min
Inclination
86.3974°
Eccentricity
0.0002345
Mean motion
14.34217622 rev/d
Perigee alt
776.0 km
Apogee alt
779.3 km
Semi-major
7,155.8 km
B*
9.0366e-6
RAAN
314.0778°
Arg perigee
92.8947°
Mean anomaly
267.2517°
Rev number
48,352

§ Raw data

IRIDIUM 1261 42809U 17039G   26262.89429370  .00000045  00000+0  90366-5 0  99902 42809  86.3974 314.0778 0002345  92.8947 267.2517 14.34217622483529

JSON: /api/v1/satellites/42809 · /tle

For live sub-satellite position, see the globe view (requires WebGL).

§ Visibility from observer

Set your observer location to see the next 7 days of passes ≥ 10°. The values pass through the URL so the page stays shareable.

No JS? Fill the form by hand. The geolocation button needs JavaScript.